Regional Weather Roundup
Issued by NWS Charleston, SC

Current Version | Previous Version | Graphics & Text | Print | Product List | Glossary On
Versions: 1 2 3 4 5 6 7 8 9 10 11 12 13 14 15 16 17 18 19 20 21 22 23 24 25 26 27 28 29 30 31 32 33 34 35 36 37 38 39 40 41 42 43 44 45 46 47 48 49 50
000 ASUS42 KCHS 220027 RWRCHS Regional Weather Roundup National Weather Service Charleston SC 800 PM EDT SAT APR 21 2018 NOTE: "fair" indicates few or no clouds below 12,000 feet with no significant weather and/or obstructions to visibility. Not all stations are quality controlled. Use data with caution, especially dewpoint observations. SCZ027-030-031-034>040-042>050-220100- ...Southeast South Carolina... CITY SKY/WX TMP DP RH WIND PRES REMARKS N Charleston FAIR 62 51 67 E9 30.31S 6HR MIN TEMP: 62; 6HR MAX TEMP: 72; Waterfront Prk NOT AVBL Mount Pleasant FAIR 61 52 72 NE5 30.33R Johns Island FAIR 61 54 77 NE9 30.32R Pinopolis N/A 64 52 63 VRB3 30.22F Moncks Corner FAIR 61 46 59 SE3 30.32R Summerville FAIR 63 50 63 CALM 30.33R Beaufort MCAS CLOUDY 65 55 70 E8 30.30R 6HR MIN TEMP: 65; 6HR MAX TEMP: 71; Beaufort Arpt CLOUDY 63 54 72 E15G21 30.30R Hilton Head Is FAIR 63 55 77 NE10G17 30.30R Walterboro MOCLDY 63 50 63 E9 30.32R Allendale CLOUDY 66 52 59 CALM 30.29R ...Southern Midlands and Pee Dee... CITY SKY/WX TMP DP RH WIND PRES REMARKS Georgetown FAIR 55 50 82 E3 30.34S Kingstree FAIR 61 45 55 SE5 30.32S Orangeburg FAIR 65 49 56 SE8 30.29R 6HR MIN TEMP: 65; 6HR MAX TEMP: 73; Barnwell CLOUDY 66 52 59 SE6 30.29R Aiken FAIR 64 43 45 SE5 30.31R Manning FAIR 59 45 58 SE3 30.32R Columbia FAIR 69 43 38 E6 30.28R 6HR MIN TEMP: 69; 6HR MAX TEMP: 74; Sumter MOCLDY 67 46 46 SE5 30.27R 6HR MIN TEMP: 67; 6HR MAX TEMP: 73; 6HR PCP: TRACE; Florence FAIR 64 46 52 SE6 30.31R 6HR MIN TEMP: 64; 6HR MAX TEMP: 73; Myrtle Beach FAIR 59 46 62 E9 30.35S N Myrtle Beach FAIR 60 46 59 E8 30.34S 6HR MIN TEMP: 60; 6HR MAX TEMP: 66; $$ GAZ063-065-086>088-099>101-113>116-118-119-134>141-150-220100- ...Southeast Georgia... CITY SKY/WX TMP DP RH WIND PRES REMARKS Savannah Arpt MOCLDY 65 53 65 NE9 30.29R 6HR MIN TEMP: 65; 6HR MAX TEMP: 72; Hunter AAF MOCLDY 65 54 67 NE9 30.26R 6HR MIN TEMP: 65; 6HR MAX TEMP: 72; Fort Stewart CLOUDY 65 55 69 NE8 30.25S 6HR MIN TEMP: 65; 6HR MAX TEMP: 71; Statesboro CLOUDY 67 51 55 SE3 30.29R Sylvania CLOUDY 66 55 68 SE3 30.30R Claxton CLOUDY 68 55 63 NE8 30.28R ...CSRA, Central and far Southeast Georgia... CITY SKY/WX TMP DP RH WIND PRES REMARKS Thomson MOCLDY 64 44 48 S3 30.31S Augusta-Bush MOCLDY 68 52 56 SE7 30.26S 6HR MIN TEMP: 68; 6HR MAX TEMP: 76; Augusta-Daniel MOCLDY 70 50 49 SE7 30.27S Swainsboro CLOUDY 68 55 64 SE13 30.28R Vidalia CLOUDY 68 55 64 E6 30.27S Eastman CLOUDY 66 53 61 SE7 30.28S Hazlehurst FAIR 65 56 73 E6 30.25S Alma CLOUDY 63 59 87 VRB5 30.25R 6HR MIN TEMP: 63; 6HR MAX TEMP: 66; 6HR PCP: TRACE; Waycross FAIR 63 60 90 NE3 30.24S Jesup CLOUDY 66 55 68 CALM 30.26S Baxley CLOUDY 61 61 100 CALM 30.25F Brunswick CLOUDY 64 59 82 NE6 30.26R Saint Simons CLOUDY 67 62 84 NE12 30.24S 6HR MIN TEMP: 67; 6HR MAX TEMP: 69; 6HR PCP: TRACE; $$ SCZ027-028-034-036>038-045-046-048>050-GAZ119-141-220100- ...Lake and Supplemental Coastal Observations... STATION/POSITION TIME TEMP WIND PRES WAVE SWELL AIR SEA DIR/SP/G HT/PER HT/PER/DIR (UTC) (F) (DEG/KT/KT) (MB) (FT/S) (FT/S/D) Winyah Bay 2345 61 90/ 9 1027.0S Lake Murray 2320 69 110/ 3/ 5 1024.7 ACE Basin NERRS 2345 63 350/ 3 N/A Fort Pulaski 0000 63 66 70/ 16/ 20 1025.6 Sapelo Island 0000 66 40/ 7 1024.0 $$ ANZ835-935-AMZ111-154-330-350-352-354-370-450-454-472-220100- ...C-MAN and Buoy Observations... STATION/POSITION TIME TEMP WIND PRES WAVE SWELL AIR SEA DIR/SP/G HT/PER HT/PER/DIR (UTC) (F) (DEG/KT/KT) (MB) (FT/S) (FT/S/D) Buoy 41004 0010 66 67 70/ 16/ 17 1025.9 Buoy 41008 2350 66 65 80/ 12/ 14 1024.1S 5/ 7 3/130/ 7 Folly Beach CMAN 0000 62 60/ 17/ 19 1026.8R Capers Nearshore 0008 63 63 70/ 16/ 19 1026.6R Fripp Nearshore 0008 63 64 70/ 17/ 23 1025.0F STATION/POSITION TIME TEMP WIND PRES WAVE SWELL AIR SEA DIR/SP/G HT/PER HT/PER/DIR (UTC) (F) (DEG/KT/KT) (MB) (FT/S) (FT/S/D) 5E St. Marys GA 0000 66 N/A 5/ 7 Frying Pan Buoy 0010 63 67 60/ 16/ 19 1027.2 Buoy 41025 0010 59 73 30/ 10/ 14 1029.1 Cape Lookout NC 0000 90/ 11/ 12 1028.6R Buoy 41002 0010 65 72 60/ 12/ 16 1026.3 Buoy 41010 0010 72 76 70/ 19/ 23 1022.9 St Augustine FL 0000 69 67 90/ 14/ 16 1022.7R $$

USA.gov is the U.S. government's official web portal to all federal, state and local government web resources and services.